Regional Weather Roundup
Issued by NWS

Home | Current Version | Previous Version | Text Only | Print | Product List | Glossary On
Versions: 1 2 3 4 5 6 7 8 9 10 11 12 13 14 15 16 17 18 19 20 21 22 23 24 25 26 27 28 29 30 31 32 33 34 35 36 37 38 39 40 41 42 43 44 45 46 47 48 49 50
000
ASUS43 KLOT 280210
RWRIL

ILLINOIS REGIONAL WEATHER ROUNDUP
NATIONAL WEATHER SERVICE CHICAGO/ROMEOVILLE IL
800 PM CST FRI FEB 27 2015

NOTE: "FAIR" INDICATES FEW OR NO CLOUDS BELOW 12,000 FEET WITH NO
SIGNIFICANT WEATHER AND/OR OBSTRUCTIONS TO VISIBILITY.

* THESE STATIONS ARE NOT UNDER NWS QUALITY CONTROL. THEY ALSO MAY NOT
  REPORT WEATHER SUCH AS PRECIPITATION OR FOG.

ILZ001-002-007-009-015-016-024-280300-
NORTHWEST ILLINOIS

CITY           SKY/WX    TMP DP  RH WIND       PRES   REMARKS
MOLINE         MOCLDY    -4 -12  68 CALM      30.65R
STERLING*      FAIR      -8 -20  54 CALM      30.64S
SAVANNA*       PTCLDY     0  -6  74 CALM      30.65R
$$

ILZ003-004-008-010-011-017-018-280300-
NORTH CENTRAL ILLINOIS

CITY           SKY/WX    TMP DP  RH WIND       PRES   REMARKS
ROCKFORD       CLEAR      2  -7  66 SW3       30.64R
FREEPORT*      CLEAR      2  -8  64 SW7       30.63S WCI -11
ROCHELLE*      CLEAR    -11 -15  80 S5        30.64S WCI -22
DE KALB*       CLEAR      2  -8  64 SW7       30.62S WCI -11
PERU*          PTCLDY     5  -4  64 CALM      30.65S
$$

ILZ005-006-012>014-019>023-280300-
NORTHEAST ILLINOIS

CITY           SKY/WX    TMP DP  RH WIND       PRES   REMARKS
CHICAGO-OHARE  CLEAR      6  -6  57 SW6       30.63S WCI  -4
CHICAGO-MIDWAY FAIR       9  -4  55 W7        30.65R WCI  -2
AURORA         PTCLDY     0  -9  65 W6        30.64S WCI -12
LANSING*       PTCLDY     2  -5  71 CALM      30.66S
JOLIET*        PTCLDY     0  -6  74 CALM      30.67R
WAUKEGAN       CLEAR      4  -5  66 SW7       30.62R WCI  -8
DUPAGE AIRPORT CLEAR      3  -8  60 SW5       30.63R WCI  -6
KANKAKEE*      MOCLDY     2  -4  75 CALM      30.68R
WHEELING       CLEAR      8  -4  58 SW6       30.65R WCI  -2
MORRIS*        PTCLDY     2  -4  73 CALM      30.65S
ROMEOVILLE*    PTCLDY     4  -6  65 W5        30.64S WCI  -6
NORTHERLY ISL    N/A     11  -2  56 W9          N/A  WCI  -2
$$

LMZ740>746-280300-
SOUTHERN LAKE MICHIGAN

STATION/POSITION SKY/WX   TEMP    WIND        PRES    VSBY  WAVE
                          AIR SEA DIR/SP/G                  HT/PER
                          (F)     (DEG/KT/KT) (MB)    (MI)  (FT/S)
WAUKEGAN HARBOR            10     240/  9/ 12   N/A
HARRISON CRIB              11     260/ 14/ 16   N/A
BURNHAM HARBOR             11     250/  7/ 11   N/A
CALUMET HARBOR             10     230/  6/  9 1036.4S
MICHIGAN CITY              10     200/  8/  8   N/A
$$

ILZ025>027-034>036-040-047-049-050-058-095>099-280300-
WEST-CENTRAL ILLINOIS

CITY           SKY/WX    TMP DP  RH WIND       PRES   REMARKS
QUINCY         PTCLDY     9  -2  61 E3        30.64R
GALESBURG*     CLOUDY    -1  -6  78 CALM      30.64S
MACOMB*        PTCLDY     2  -4  74 CALM      30.67S
JACKSONVILLE*  PTCLDY     9  -1  64 CALM      30.66R
PITTSFIELD*    PTCLDY    11   0  60 SE3       30.66R
$$

ILZ028>032-037-038-041>044-048-051>054-059>061-280300-
CENTRAL ILLINOIS

CITY           SKY/WX    TMP DP  RH WIND       PRES   REMARKS
PONTIAC        PTCLDY     0  -5  78 SE5       30.67R WCI -10
BLOOMINGTON    PTCLDY     3  -4  72 SE3       30.64S
DECATUR        MOCLDY     5  -4  66 CALM      30.65S
PEORIA         PTCLDY     9  -3  58 CALM      30.66R
LACON*         MOCLDY    -2  -9  70 CALM      30.66S
LINCOLN*       PTCLDY     9   2  75 CALM      30.69R
SPRINGFIELD    PTCLDY     6  -3  66 CALM      30.66R
TAYLORVILLE    MOCLDY     9   3  78 S3        30.67R
$$

ILZ033-039-045-046-055>057-062-063-280300-
EAST-CENTRAL ILLINOIS

CITY           SKY/WX    TMP DP  RH WIND       PRES   REMARKS
CHAMPAIGN      MOCLDY     7  -3  64 CALM      30.64F
DANVILLE*      CLEAR      5  -2  72 N7        30.62F WCI  -7
RANTOUL*       PTCLDY     8   1  72 N6        30.64F WCI  -2
MATTOON        MOCLDY     9  -1  64 CALM      30.64S
PARIS*         MOCLDY     2  -4  75 CALM      30.66S
$$

ILZ079-100>102-280300-
SOUTHWEST ILLINOIS

CITY           SKY/WX    TMP DP  RH WIND       PRES   REMARKS
ALTON          PTCLDY    14  -4  44 NE8       30.67  WCI   3
BELLEVILLE     MOCLDY    16   4  59 NE6       30.66R WCI   7
CAHOKIA*       MOCLDY    17   2  51 E6        30.67R WCI   9
SPARTA*        CLOUDY    18   7  62 NE6       30.66S WCI  10
$$

ILZ064>066-069>071-074>076-080>082-084>086-088>090-092>094-280300-
SOUTH-CENTRAL ILLINOIS

CITY           SKY/WX    TMP DP  RH WIND       PRES   REMARKS
CARBONDALE     CLOUDY    21   9  59 E6        30.65R WCI  13
CAIRO*         CLOUDY    25  11  55 NE9       30.65R WCI  16
EFFINGHAM*     MOCLDY    10  -1  59 CALM      30.68R
MARION         CLOUDY    21  10  63 NE3       30.66R
MT. VERNON     CLOUDY    18   3  53 E7        30.66S WCI   8
CENTRALIA*     MOCLDY    15   2  54 NE3       30.67R
SALEM*         MOCLDY    15   3  58 CALM      30.67R
METROPOLIS*    CLOUDY    23  12  62 NE5       30.63R WCI  16
$$

ILZ067-068-072-073-078-083-087-091-280300-
SOUTHEAST ILLINOIS

CITY           SKY/WX    TMP DP  RH WIND       PRES   REMARKS
LAWRENCEVILLE  CLOUDY    13   4  67 N7        30.68R WCI   3
FLORA*         CLOUDY    13   3  63 N3        30.68S
FAIRFIELD*     CLOUDY    17   5  57 CALM      30.67R
HARRISBURG*    CLOUDY    20  10  65 N6        30.67S WCI  12
ROBINSON*      MOCLDY    12   0  59 N5        30.69S WCI   4
CARMI*         CLOUDY    21  11  64 N7        30.66S WCI  13
$$

ABBREVIATIONS USED IN REMARKS
   TC - TEMPERATURE IN CELSIUS
  WCI - WIND CHILL INDEX
   HX - HEAT INDEX
  VSB - VISIBILITY
$$



USA.gov is the U.S. government's official web portal to all federal, state and local government web resources and services.